When you browse on this site, cookies collect data to enhance your experience and personalize the content and advertising you see.
Visit our Privacy Policy to learn more. By continuing to use the site, you agree to this use of cookies and data.
  • In Hungary
  • List of Countries
  • For 7 days
  • Water Temperature
  • Weather Map
  • News
  • Weather Widgets
  • user-avatar
    Login

    Hourly Weather Zodyn

    Today, 14 December, Saturday

    Time Temperature Precipitation Wind Pressure Humidity
    00:00 0°C° 0 mm 4 mps 734 mmHg 82%
    01:00 +1°C° 0 mm 4 mps 735 mmHg 84%
    02:00 +1°C° 0 mm 5 mps 735 mmHg 84%
    03:00 +1°C° 0 mm 5 mps 735 mmHg 85%
    04:00 +1°C° 0 mm 5 mps 735 mmHg 85%
    05:00 +2°C° 0.1 mm 5 mps 735 mmHg 87%
    06:00 +2°C° 0.1 mm 5 mps 735 mmHg 89%
    07:00 +2°C° 0.1 mm 5 mps 735 mmHg 92%
    08:00 +2°C° 0.1 mm 5 mps 736 mmHg 87%
    09:00 +3°C° 0.1 mm 5 mps 736 mmHg 83%
    10:00 +4°C° 0.1 mm 4 mps 736 mmHg 79%
    11:00 +3°C° 0.1 mm 5 mps 736 mmHg 82%
    12:00 +2°C° 0.1 mm 6 mps 736 mmHg 84%
    13:00 +2°C° 0.1 mm 6 mps 736 mmHg 87%
    14:00 +2°C° 1.2 mm 7 mps 737 mmHg 86%
    15:00 +3°C° 1.2 mm 7 mps 737 mmHg 85%
    16:00 +2°C° 1.2 mm 8 mps 738 mmHg 85%
    17:00 +2°C° 0 mm 8 mps 739 mmHg 83%
    18:00 +2°C° 0 mm 8 mps 740 mmHg 80%
    19:00 +2°C° 0 mm 8 mps 741 mmHg 78%
    20:00 +3°C° 0 mm 7 mps 742 mmHg 76%
    21:00 +2°C° 0 mm 6 mps 743 mmHg 73%
    22:00 +2°C° 0 mm 5 mps 744 mmHg 70%
    23:00 +2°C° 0.1 mm 5 mps 744 mmHg 78%

    Tomorrow, 15 December, Sunday

    Time Temperature Precipitation Wind Pressure Humidity
    00:00 +2°C° 0.1 mm 5 mps 745 mmHg 85%
    01:00 +2°C° 0.1 mm 5 mps 745 mmHg 92%
    02:00 +2°C° 0 mm 5 mps 746 mmHg 89%
    03:00 +2°C° 0 mm 5 mps 746 mmHg 86%
    04:00 +2°C° 0 mm 5 mps 746 mmHg 83%
    05:00 +1°C° 0 mm 4 mps 746 mmHg 83%
    06:00 +1°C° 0 mm 4 mps 746 mmHg 84%
    07:00 +2°C° 0 mm 3 mps 746 mmHg 84%
    08:00 +3°C° 0.3 mm 4 mps 746 mmHg 85%
    09:00 +3°C° 0.3 mm 5 mps 745 mmHg 86%
    10:00 +5°C° 0.3 mm 5 mps 745 mmHg 87%
    11:00 +5°C° 0.8 mm 6 mps 745 mmHg 84%
    12:00 +6°C° 0.8 mm 7 mps 745 mmHg 82%
    13:00 +9°C° 0.8 mm 7 mps 745 mmHg 79%
    14:00 +8°C° 0.3 mm 6 mps 746 mmHg 76%
    15:00 +7°C° 0.3 mm 6 mps 747 mmHg 73%
    16:00 +6°C° 0.3 mm 5 mps 748 mmHg 70%
    17:00 +5°C° 0 mm 5 mps 749 mmHg 69%
    18:00 +5°C° 0 mm 5 mps 750 mmHg 68%
    19:00 +3°C° 0 mm 5 mps 751 mmHg 67%
    20:00 +4°C° 0 mm 4 mps 752 mmHg 68%
    21:00 +4°C° 0 mm 4 mps 753 mmHg 70%
    22:00 +3°C° 0 mm 3 mps 753 mmHg 71%
    23:00 +3°C° 0 mm 3 mps 754 mmHg 73%

    Day after tomorrow, 16 December, Monday

    Time Temperature Precipitation Wind Pressure Humidity
    00:00 +3°C° 0 mm 3 mps 754 mmHg 76%
    01:00 +2°C° 0 mm 3 mps 754 mmHg 78%
    02:00 +2°C° 0 mm 3 mps 754 mmHg 79%
    03:00 +2°C° 0 mm 3 mps 754 mmHg 81%
    04:00 +3°C° 0 mm 3 mps 754 mmHg 82%
    05:00 +3°C° 0 mm 3 mps 754 mmHg 83%
    06:00 +4°C° 0 mm 2 mps 754 mmHg 85%
    07:00 +5°C° 0 mm 2 mps 754 mmHg 86%
    08:00 +5°C° 0 mm 2 mps 754 mmHg 85%
    09:00 +5°C° 0 mm 3 mps 754 mmHg 85%
    10:00 +5°C° 0 mm 3 mps 755 mmHg 84%
    11:00 +5°C° 0 mm 3 mps 754 mmHg 85%
    12:00 +7°C° 0 mm 2 mps 754 mmHg 85%
    13:00 +7°C° 0 mm 2 mps 754 mmHg 86%
    14:00 +7°C° 0 mm 2 mps 754 mmHg 85%
    15:00 +7°C° 0 mm 2 mps 753 mmHg 84%
    16:00 +7°C° 0 mm 2 mps 753 mmHg 82%
    17:00 +5°C° 0 mm 3 mps 753 mmHg 84%
    18:00 +5°C° 0 mm 3 mps 753 mmHg 85%
    19:00 +5°C° 0 mm 3 mps 753 mmHg 87%
    20:00 +5°C° 0 mm 2 mps 753 mmHg 87%
    21:00 +5°C° 0 mm 2 mps 753 mmHg 88%
    22:00 +5°C° 0 mm 2 mps 753 mmHg 89%
    23:00 +5°C° 0 mm 2 mps 753 mmHg 89%

    17 December, Tuesday

    Time Temperature Precipitation Wind Pressure Humidity
    00:00 +5°C° 0 mm 2 mps 752 mmHg 89%
    01:00 +5°C° 0 mm 2 mps 752 mmHg 90%
    02:00 +4°C° 0 mm 2 mps 752 mmHg 90%
    03:00 +4°C° 0 mm 2 mps 752 mmHg 90%
    04:00 +5°C° 0 mm 1 mps 752 mmHg 91%
    05:00 +5°C° 0 mm 1 mps 751 mmHg 91%
    06:00 +5°C° 0 mm 1 mps 751 mmHg 91%
    07:00 +5°C° 0 mm 1 mps 751 mmHg 92%
    08:00 +5°C° 0 mm 1 mps 751 mmHg 91%
    09:00 +4°C° 0 mm 2 mps 751 mmHg 90%
    10:00 +5°C° 0 mm 2 mps 752 mmHg 89%
    11:00 +5°C° 0 mm 2 mps 751 mmHg 86%
    12:00 +7°C° 0 mm 1 mps 751 mmHg 84%
    13:00 +8°C° 0 mm 1 mps 751 mmHg 81%
    14:00 +7°C° 0 mm 1 mps 751 mmHg 84%
    15:00 +7°C° 0 mm 1 mps 751 mmHg 86%
    16:00 +5°C° 0 mm 2 mps 751 mmHg 89%
    17:00 +5°C° 0 mm 2 mps 751 mmHg 89%
    18:00 +5°C° 0 mm 2 mps 751 mmHg 90%
    19:00 +5°C° 0 mm 2 mps 751 mmHg 91%
    20:00 +5°C° 0 mm 2 mps 751 mmHg 90%
    21:00 +5°C° 0 mm 2 mps 751 mmHg 90%
    22:00 +5°C° 0 mm 2 mps 752 mmHg 89%
    23:00 +5°C° 0 mm 2 mps 752 mmHg 88%

    18 December, Wednesday

    Time Temperature Precipitation Wind Pressure Humidity
    00:00 +5°C° 0 mm 2 mps 752 mmHg 87%
    01:00 +5°C° 0 mm 2 mps 751 mmHg 86%
    02:00 +5°C° 0 mm 2 mps 752 mmHg 86%
    03:00 +5°C° 0 mm 2 mps 752 mmHg 86%
    04:00 +5°C° 0 mm 2 mps 752 mmHg 85%
    05:00 +5°C° 0 mm 2 mps 752 mmHg 86%
    06:00 +4°C° 0 mm 2 mps 752 mmHg 87%
    07:00 +4°C° 0 mm 2 mps 752 mmHg 88%
    08:00 +5°C° 0 mm 2 mps 753 mmHg 87%
    09:00 +4°C° 0 mm 3 mps 754 mmHg 86%
    10:00 +4°C° 0 mm 3 mps 754 mmHg 84%
    11:00 +5°C° 0 mm 3 mps 754 mmHg 83%
    12:00 +7°C° 0 mm 3 mps 755 mmHg 82%
    13:00 +8°C° 0 mm 3 mps 755 mmHg 80%
    14:00 +7°C° 0 mm 3 mps 755 mmHg 84%
    15:00 +6°C° 0 mm 2 mps 755 mmHg 88%
    16:00 +6°C° 0 mm 2 mps 756 mmHg 92%
    17:00 +7°C° 0 mm 1 mps 756 mmHg 92%
    18:00 +7°C° 0 mm 1 mps 756 mmHg 93%
    19:00 +7°C° 0 mm 1 mps 756 mmHg 93%
    20:00 +7°C° 0 mm 1 mps 756 mmHg 93%
    21:00 +6°C° 0 mm 0 mps 756 mmHg 93%
    22:00 +6°C° 0 mm 0 mps 756 mmHg 93%
    23:00 +6°C° 0.1 mm 0 mps 756 mmHg 94%

    19 December, Thursday

    Time Temperature Precipitation Wind Pressure Humidity
    00:00 +7°C° 0.1 mm 1 mps 756 mmHg 94%
    01:00 +7°C° 0.1 mm 1 mps 755 mmHg 95%
    02:00 +7°C° 0.2 mm 1 mps 755 mmHg 95%
    03:00 +7°C° 0.2 mm 1 mps 755 mmHg 95%
    04:00 +7°C° 0.2 mm 1 mps 755 mmHg 96%
    05:00 +7°C° 0.2 mm 1 mps 755 mmHg 96%
    06:00 +6°C° 0.2 mm 2 mps 755 mmHg 96%
    07:00 +5°C° 0.2 mm 2 mps 755 mmHg 96%
    08:00 +6°C° 0 mm 2 mps 755 mmHg 95%
    09:00 +6°C° 0 mm 2 mps 755 mmHg 94%
    10:00 +6°C° 0 mm 2 mps 755 mmHg 93%
    11:00 +6°C° 0 mm 2 mps 755 mmHg 91%
    12:00 +5°C° 0 mm 3 mps 755 mmHg 89%
    13:00 +7°C° 0 mm 3 mps 755 mmHg 87%
    14:00 +5°C° 0 mm 3 mps 754 mmHg 88%
    15:00 +5°C° 0 mm 3 mps 754 mmHg 89%
    16:00 +5°C° 0 mm 3 mps 754 mmHg 90%
    17:00 +5°C° 0 mm 4 mps 754 mmHg 90%
    18:00 +5°C° 0 mm 4 mps 754 mmHg 90%
    19:00 +5°C° 0 mm 5 mps 754 mmHg 90%
    20:00 +5°C° 0 mm 5 mps 753 mmHg 89%
    21:00 +5°C° 0 mm 5 mps 753 mmHg 89%
    22:00 +4°C° 0 mm 6 mps 753 mmHg 89%
    23:00 +4°C° 0.2 mm 6 mps 752 mmHg 90%
    Show more